www.pogodaiklimat.ru

Погода и климат >> Архив погоды >> Индия >> Махараштра >> Мумбаи


АРХИВ ПОГОДЫ в Мумбаи

Время (UTC), дата Ветер
(напр.,м/с)
 
Видим.   Явления Облачность Т
(С)
Тd
(С)
f
(%)
Тe
(С)
Тes
(С)
Комфортность P
(гПа)
Po
(гПа)
Тmin
(С)
Tmax
(С)
R
(мм)
R24
(мм)
S
(см)
09 13.09 З 4 2000 м мгла {дождь} 9/6 360 м
[Frnb Ac As]
+29.0 +25.6 82 +43 +45 опасность
перегрева
1008.2 1006.6 0.8
12 13.09 З 2 2000 м слаб. дождь {морось} 10/8 300 м
[Frnb As op]
+26.8 +25.7 94 +40 +40 очень
душно
1007.3 1005.7 +29.3 9
15 13.09 З 2 2000 м мгла {дождь} 9/6 300 м
[Frnb Ac As]
+27.4 +25.7 90 +40 +40 очень
душно
1008.4 1006.8 9
18 13.09 ЮЗ 2 2000 м в посл. час морось 9/6 360 м
[Frnb Ac trans]
+27.6 +25.6 89 +41 +41 опасность
перегрева
1008.6 1007.0 9
21 13.09 З 2 2000 м дождь {морось} 9/6 360 м
[Frnb As op]
+26.2 +25.1 94 +38 +38 очень
душно
1007.1 1005.5 19
00 14.09 штиль 0 2000 м в посл. час дождь {морось} 9/6 360 м
[Frnb Ac As]
+27.2 +25.5 90 +40 +40 очень
душно
1007.4 1005.8 23
03 14.09 ЮЗ 3 2000 м мгла 9/6 360 м
[Frnb Ac As]
+28.2 +25.9 87 +42 +43 опасность
перегрева
1009.4 1007.8 +24.6 23
06 14.09 З 4 2000 м мгла 9/6 360 м
[Frnb Ac trans]
+30.6 +26.4 78 +47 +49 опасность
перегрева
1009.5 1007.9
09 14.09 З 3 2000 м мгла {дождь} 9/6 360 м
[Frnb Ac trans]
+30.4 +25.9 77 +45 +48 опасность
перегрева
1007.8 1006.2 1
12 14.09 ЮЗ 2 2000 м мгла {дождь} 9/6 360 м
[Frnb Ac trans]
+29.2 +25.5 80 +43 +43 опасность
перегрева
1007.5 1005.9 +30.9 1
15 14.09 З 2 2000 м в посл. час дождь {морось} 9/6 360 м
[Frnb Ac trans]
+27.4 +25.4 89 +40 +40 очень
душно
1008.9 1007.3 2
18 14.09 З 3 2000 м в посл. час морось {дождь} 9/6 420 м
[Frnb Ac As]
+27.6 +25.9 90 +41 +41 опасность
перегрева
1009.0 1007.4 2
21 14.09 З 2 2000 м мгла 9/6 420 м
[Frnb Ac As]
+27.6 +24.7 84 +39 +39 очень
душно
1007.6 1006.0 2
00 15.09 штиль 0 2000 м слаб. дождь 10/8 360 м
[Frnb As op]
+25.2 +23.7 91 +34 +34 очень
душно
1008.3 1006.7 3
03 15.09 З 2 2000 м слаб. дождь {морось} 10/8 300 м
[Frnb As op]
+24.6 +23.7 95 +33 +34 очень
душно
1010.7 1009.1 +23.5 31
06 15.09 З 2 2000 м слаб. дождь 10/8 300 м
[Frnb As op]
+25.2 +24.3 95 +35 +36 очень
душно
1010.8 1009.2 4
09 15.09 С 2 2000 м в посл. час дождь {морось} 9/6 300 м
[Frnb Ac As]
+27.2 +24.9 87 +39 +42 очень
душно
1008.4 1006.8 5
12 15.09 СЗ 3 2000 м мгла {дождь} 9/6 300 м
[Frnb Ac As]
+26.6 +24.3 87 +37 +37 очень
душно
1008.6 1007.0 +28.6 5
15 15.09 штиль 0 2000 м мгла 9/6 540 м
[Cu Sc Ac trans]
+25.6 +24.1 91 +35 +35 очень
душно
1009.0 1007.4 5
18 15.09 З 2 2000 м в посл. час морось {дождь} 9/8 540 м
[Cu Sc Ac trans]
+25.6 +24.4 93 +36 +36 очень
душно
1009.8 1008.2 9
21 15.09 З 2 2000 м мгла 9/8 540 м
[Cu Sc Ac trans]
+26.8 +26.0 95 +40 +40 очень
душно
1008.1 1006.5 9
00 16.09 штиль 0 2000 м мгла 9/8 600 м
[Cu Sc Ac trans]
+27.2 +25.5 90 +40 +40 очень
душно
1008.0 1006.4 9
03 16.09 З 3 2000 м мгла {дождь} 9/6 360 м
[Frnb Ac trans]
+27.6 +25.9 90 +41 +42 опасность
перегрева
1009.3 1007.7 +24.3 9
06 16.09 З 3 2000 м в посл. час дождь {морось} 9/6 360 м
[Frnb Ac As]
+28.0 +25.7 87 +41 +44 опасность
перегрева
1009.6 1008.0 0.4
09 16.09 З 2 2000 м в посл. час дождь {морось} 9/6 540 м
[Cu Sc Ac trans]
+28.8 +23.9 75 +40 +44 очень
душно
1007.2 1005.6 2
12 16.09 штиль 0 2000 м в посл. час дождь {морось} 9/6 360 м
[Frnb Ac As]
+28.2 +24.8 82 +40 +41 очень
душно
1006.2 1004.6 +30.0 4
15 16.09 штиль 0 2000 м мгла {дождь} 8/5 600 м
[Cu Sc Ac trans]
+27.8 +25.5 87 +41 +41 опасность
перегрева
1007.4 1005.8 4
18 16.09 штиль 0 2000 м слаб. морось 8/6 360 м
[Frnb Ac trans]
+28.0 +25.7 87 +41 +41 опасность
перегрева
1008.0 1006.4 4
21 16.09 З 2 2000 м мгла 8/5 540 м
[Cu Sc Ac trans]
+27.6 +25.9 90 +41 +41 опасность
перегрева
1006.5 1004.9 4
00 17.09 З 3 2000 м в посл. час гроза {дождь} 9/6 540 м
[Cb cap Ac trans]
+27.6 +25.9 90 +41 +41 опасность
перегрева
1006.2 1004.6 5
03 17.09 З 2 2000 м мгла {гроза, дождь} 9/6 360 м
[Frnb As op]
+28.2 +25.7 86 +42 +42 опасность
перегрева
1007.7 1006.1 +26.2 5
06 17.09 З 2 2000 м мгла 9/6 360 м
[Frnb Ac As]
+29.4 +26.0 82 +44 +48 опасность
перегрева
1008.4 1006.8
09 17.09 З 2 2000 м гроза, ливневой дождь {морось} 10/8 360 м
[Cb cap As op Ci fib]
+28.4 +25.9 86 +42 +44 опасность
перегрева
1006.2 1004.6 0.0
12 17.09 штиль 0 2000 м слаб. дождь {гроза} 10/8 360 м
[Frnb As op]
+27.4 +25.1 87 +39 +40 очень
душно
1006.1 1004.5 +30.0 0.2
15 17.09 штиль 0 2000 м слаб. морось {дождь} 10/8 360 м
[Frnb As op]
+26.4 +25.5 95 +39 +39 очень
душно
1007.4 1005.8 3
18 17.09 ЮЗ 2 2000 м в посл. час дождь {морось} 9/6 300 м
[Frnb Ac As]
+26.0 +25.4 97 +38 +38 очень
душно
1007.5 1005.9 4
21 17.09 ЮЗ 1 2000 м слаб. морось {дождь} 9/6 300 м
[Frnb Ac As]
+25.8 +25.2 96 +37 +37 очень
душно
1006.5 1004.9 6
00 18.09 ЮЗ 2 2000 м мгла {дождь} 9/6 300 м
[Frnb Ac As]
+25.6 +24.7 95 +36 +36 очень
душно
1006.6 1005.0 6
03 18.09 штиль 0 2000 м слаб. морось {дождь} 10/8 360 м
[Frnb As op]
+27.2 +25.8 92 +40 +41 очень
душно
1008.6 1007.0 +24.8 8
06 18.09 З 2 2000 м в посл. час морось {дождь} 9/6 420 м
[Frnb Ac As]
+30.4 +25.6 76 +45 +49 опасность
перегрева
1008.2 1006.6 2
09 18.09 З 2 2000 м гроза, ливневой дождь 9/6 360 м
[Cb cap As op]
+29.0 +26.5 86 +44 +47 опасность
перегрева
1005.7 1004.1 2
12 18.09 З 2 2000 м слаб. дождь {гроза} 10/8 360 м
[Frnb As op]
+28.4 +26.4 89 +43 +44 опасность
перегрева
1005.5 1003.9 +30.5 38
15 18.09 штиль 0 2000 м мгла {гроза, дождь} 9/6 360 м
[Frnb Ac As]
+27.4 +26.3 94 +42 +42 опасность
перегрева
1006.8 1005.2 40
18 18.09 штиль 0 2000 м гроза, ливневой дождь 10/8 300 м
[Cb cap As op]
+24.6 +23.7 95 +33 +33 очень
душно
1007.5 1005.9 63
21 18.09 штиль 0 2000 м в посл. час гроза {дождь} 9/6 360 м
[Frnb As op]
+25.0 +24.1 95 +34 +34 очень
душно
1006.1 1004.5 69
00 19.09 штиль 0 2000 м слаб. морось {дождь} 9/6 360 м
[Frnb As op]
+24.8 +24.2 96 +34 +34 очень
душно
1005.8 1004.2 69
03 19.09 штиль 0 2000 м слаб. морось {дождь} 10/8 360 м
[Frnb As op]
+26.0 +25.1 95 +37 +38 очень
душно
1007.5 1005.9 +23.6 69
06 19.09 Ю 2 2000 м мгла {дождь} 9/6 360 м
[Frnb As op]
+28.6 +26.4 88 +44 +47 опасность
перегрева
1006.9 1005.3 0.1
09 19.09 З 2 2000 м в посл. час морось 9/6 420 м
[Frnb Ac trans]
+30.4 +25.0 73 +44 +47 опасность
перегрева
1004.2 1002.6 0.1
12 19.09 штиль 0 2000 м слаб. дождь {морось} 10/6 360 м
[Frnb As op]
+28.2 +25.1 83 +41 +41 опасность
перегрева
1004.3 1002.7 +31.0 0.1
15 19.09 штиль 0 2000 м слаб. дождь {морось} 10/8 360 м
[Frnb As op]
+26.6 +24.6 89 +38 +38 очень
душно
1006.1 1004.5 0.3
18 19.09 Ю 2 2000 м слаб. морось {дождь} 10/8 300 м
[Frnb As op]
+26.4 +25.3 94 +38 +38 очень
душно
1005.9 1004.3 1
21 19.09 ЮВ 3 2000 м мгла 10/6 360 м
[Frnb As op]
+26.4 +25.0 92 +38 +38 очень
душно
1005.0 1003.4 1
00 20.09 штиль 0 2000 м слаб. морось 10/6 360 м
[Frnb As op]
+26.4 +24.7 90 +37 +37 очень
душно
1004.8 1003.2 1
03 20.09 Ю 3 2000 м слаб. дождь {морось} 10/8 360 м
[Frnb As op]
+26.2 +25.1 94 +38 +38 очень
душно
1007.1 1005.5 +24.7 3
06 20.09 Ю 2 2000 м слаб. дождь {морось} 10/8 360 м
[Frnb As op]
+26.8 +25.4 92 +39 +40 очень
душно
1007.0 1005.4 35

 

Местоположение метеостанции Мумбаи (Махараштра, Индия): широта 19.12 долгота 72.85 высота над уровнем моря 14 м.

В архиве по умолчанию представлена погода в Мумбаи за последнюю неделю. Архивные данные за месяц целиком и за предыдущие месяцы, начиная с января 2011 года, Вы можете получить, выбрав интересующий диапазон дат из раскрывающегося списка и нажав кнопку "Ввод!".


*Определитесь, кто Вы:
робот инопланетянин человек

Внимание! Время в таблицах - всемирное. Для получения местного времени необходимо прибавить поправку, которая равна 5.5 ч.

Смотрите также архив погоды в соседних городах и на ближайших метеорологических станциях:

Погода в Мумбай Колаба (Махараштра, Индия) (25 км)
Погода в Матеране (Махараштра, Индия) (48 км)
Погода в Алибаге (Махараштра, Индия) (55 км)
Погода в Байре (Махараштра, Индия) (94 км)
Погода в Дахану (Махараштра, Индия) (96 км)
Погода в Пуне (Махараштра, Индия) (124 км)
Погода в Нашике (Махараштра, Индия) (138 км)
Погода в Харнае (Махараштра, Индия) (147 км)
Погода в Махабалешваре (Махараштра, Индия) (158 км)
Погода в Валсаде (Гуджарат, Индия) (167 км)

Пояснения к столбцам:

Ветер - указаны скорость ветра в м/с - средняя за 10 мин, порывы в срок и между сроками (в фигурных скобках) и направление, откуда дует ветер: С - северный, СВ - северо-восточный, В - восточный, ЮВ - юго-восточный, Ю - южный, ЮЗ - юго-западный, З - западный, СЗ - северо-западный.
Видимость - горизонтальная дальность видимости в метрах или километрах. При видимости от 1 до 10 км при отсутствии осадков обычно наблюдается дымка, при ухудшении видимости до 1 км и менее - туман. В сухую погоду видимость может ухудшаться дымом, пылью или мглою.
Явления - указаны атмосферные явления, наблюдавшиеся в срок или в последний час перед сроком; фигурными скобками обозначены явления, наблюдавшиеся между сроками (за 1-3 часа до срока); квадратными скобками обозначены град или гололедные отложения с указанием их диаметра в мм.
Облачность - указаны через наклонную черту общая и нижняя облачность в баллах и высота нижней границы облаков в метрах; квадратными скобками обозначены формы облаков: Ci - перистые, Cs - перисто-слоистые, Cc - перисто-кучевые, Ac - высококучевые, As - высокослоистые, Sc - слоисто-кучевые, Ns - слоисто-дождевые, Cu - кучевые, Cb - кучево-дождевые. Подробнее классификацию облаков см. в Атласе облаков (PDF).
T - Температура воздуха - температура, измеренная на высоте 2 м над землей.
Td - Температура точки росы - температура, при понижении до которой содержащийся в воздухе водяной пар достигнет насыщения.
f - Относительная влажность воздуха - влажноcть воздуха, измеренная на высоте 2 м над землей.
Te - Эффективная температура - температура, которую ощущает одетый по сезону человек в тени. Характеристика душности погоды. При расчете учитывается влияние влажности воздуха и скорости ветра на теплоощущения человека.
Tes - Эффективная температура на солнце - температура, которую ощущает человек, с поправкой на солнечный нагрев. Характеристика знойности погоды. Зависит от высоты солнца над горизонтом, облачности и скорости ветра. Ночью, в пасмурную погоду, а также при ветре 12 м/с и более поправка равна нулю.
P - Атмосферное давление - приведенное к уровню моря атмосферное давление.
Po - Атмосферное давление - измеренное на уровне метеостанции атмосферное давление.
Tmin - Минимальная температура - минимум температуры воздуха на высоте 2 м над землей.
Tmax - Максимальная температура - максимум температуры воздуха на высоте 2 м над землей.
R - Количество осадков - Количество выпавших осадков за период времени, мм. При наведении курсора мыши на число - период времени, за который выпало указанное количество осадков.
R24 - Количество осадков - Количество выпавших осадков за 24 часа, мм.
S - Снежный покров - Высота снежного покрова, см. При наведении курсора мыши на число - состояние снежного покрова и степень покрытия местности в баллах.